Temp
25 25 25 25 25 26 25 25 25 25 25 25 25 25 24 25 25 25 25 25 25 25 25 25 25 25 25 25 25 25 25 25 25 26 26 26 26 26 26 27 27 27
25 25 25 25 25 25 25 25 25 25 25 25 25 25 25 25 25 25 25 25 25 25 25 25 25 25 25 25 25 25 25 25 25 26 26 26 26 26 26 26 27 27
25 25 25 25 25 25 25 25 25 25 25 25 25 25 25 25 25 25 25 25 25 25 25 25 25 25 25 25 25 25 25 25 25 25 26 26 26 26 26 26 27 27
25 25 25 25 25 25 25 25 25 25 25 25 25 25 25 25 25 25 25 25 25 25 25 25 25 25 25 25 25 25 25 25 25 25 25 25 26 26 26 26 26 26
25 25 25 25 25 25 25 25 25 25 25 25 25 25 25 25 25 25 25 25 25 25 25 25 25 25 25 25 25 25 25 25 25 25 25 25 26 26 26 26 26 26
25 25 25 25 25 25 25 25 25 25 25 25 25 25 25 25 25 26 25 25 25 25 25 25 25 25 25 25 25 25 25 25 25 25 25 25 26 26 26 26 26 26
25 25 25 25 25 25 25 25 25 25 25 25 25 25 25 25 25 26 25 25 25 25 25 25 25 25 25 25 25 25 25 25 25 25 25 25 25 26 26 26 26 26
25 25 25 25 25 25 25 25 25 25 25 25 25 25 26 26 25 25 25 25 25 25 25 25 25 25 25 25 25 25 25 25 25 25 25 25 25 25 26 26 26 26
25 25 25 25 25 25 25 25 25 25 25 26 26 26 26 26 26 25 25 25 25 25 25 25 25 25 25 25 25 25 25 25 25 25 25 25 25 25 26 26 26 26
25 25 25 25 25 25 26 26 26 26 26 26 26 26 26 26 26 26 26 25 25 25 25 25 25 25 25 25 25 25 25 25 25 25 25 25 25 25 26 26 26 26
25 25 25 25 25 26 26 26 26 26 26 26 25 25 25 25 25 25 26 26 26 26 26 26 26 26 25 25 25 25 25 26 26 26 25 26 26 26 26 26 26 26
25 25 25 25 26 26 26 26 26 26 26 25 25 25 25 25 25 24 25 25 26 26 26 26 26 26 26 26 26 26 26 26 26 26 26 26 26 26 26 26 26 26
26 26 26 26 26 26 26 26 26 26 25 26 25 25 25 25 25 25 25 25 26 26 26 26 26 26 26 26 26 26 26 26 26 26 26 26 26 26 26 25 25 24
26 26 26 26 26 26 26 26 26 25 25 26 26 25 25 26 25 25 25 25 26 26 26 26 25 25 25 26 26 26 26 26 26 26 26 26 26 26 25 25 24 24
26 26 26 26 26 26 26 26 26 26 25 26 26 26 26 26 26 25 25 25 26 26 25 25 25 25 25 25 25 25 25 25 26 26 26 26 26 26 25 24 25 25
26 26 26 26 26 26 26 26 26 26 26 26 26 26 26 26 26 25 25 25 25 25 25 25 25 25 25 25 25 25 25 25 25 25 26 26 26 26 25 25 25 25
26 26 26 26 26 26 26 26 27 26 26 26 26 26 26 26 26 25 25 25 25 25 25 25 25 25 25 25 25 25 25 25 25 25 25 25 25 26 26 26 26 25
25 26 26 26 26 26 26 26 26 26 26 26 26 26 26 26 26 26 26 25 25 25 25 25 25 25 25 25 25 25 25 25 25 25 25 25 25 26 26 26 26 25
24 24 25 26 26 25 25 25 26 26 25 25 25 25 25 25 25 26 26 25 25 25 25 25 25 25 25 25 25 25 25 25 25 25 25 25 25 25 25 25 25 25
23 23 22 23 24 25 24 25 25 25 25 25 25 25 25 25 25 25 25 25 25 25 25 25 25 25 25 25 25 25 25 25 25 25 25 25 25 25 25 25 25 25
24 23 22 22 23 23 23 23 24 24 24 24 24 24 24 24 24 24 24 24 24 24 24 24 24 24 24 25 25 25 25 25 24 24 24 25 24 24 24 24 24 24
23 23 22 22 22 22 22 23 23 23 23 23 23 22 22 23 23 23 23 23 23 23 23 23 23 23 23 24 24 24 24 24 24 24 24 24 24 23 23 24 23 23
21 21 20 20 21 21 22 22 22 22 22 22 22 21 21 21 21 21 21 21 21 21 22 22 22 22 23 23 23 23 23 23 23 23 23 23 23 22 22 23 22 22
20 20 19 19 20 21 21 21 21 21 21 21 21 21 21 21 21 20 20 20 20 20 21 21 21 21 21 22 22 22 22 23 23 23 22 22 22 22 21 21 21 21
19 19 19 19 20 20 20 20 21 21 21 21 21 20 20 20 20 20 19 20 20 20 20 20 20 20 20 21 21 22 22 22 22 22 22 21 21 21 20 21 21 21
19 19 19 19 19 19 19 20 20 20 20 20 20 19 19 19 19 19 19 19 19 19 19 19 20 20 20 20 20 21 21 21 21 21 21 21 20 20 20 20 20 20
Height
856 857 858 859 861 862 862 863 864 865 866 867 867 868 869 870 870 871 871 872 872 873 873 873 873 874 874 874 874 874 874 874 874 874 874 874 874 873 874 874 873 873
855 856 857 858 860 861 862 863 864 864 865 866 867 867 868 869 870 870 871 871 872 872 872 873 873 873 873 873 873 873 874 874 874 874 874 874 874 873 873 873 873 873
854 855 856 857 858 860 861 862 863 864 865 865 866 867 867 868 868 869 870 870 871 871 871 872 872 872 873 873 873 873 873 874 874 874 874 873 873 873 873 873 873 873
853 854 855 856 857 859 860 861 862 863 864 865 865 866 866 867 868 868 869 869 870 870 870 871 871 871 872 872 872 873 873 873 873 873 873 873 873 873 873 873 873 873
851 853 854 855 856 858 859 860 861 862 863 863 864 865 866 866 867 867 868 868 869 869 869 870 870 870 871 871 871 872 872 872 872 873 873 873 873 873 873 873 873 873
851 852 853 854 855 857 858 858 860 860 861 862 863 864 865 865 866 866 867 867 868 868 868 868 869 869 869 870 870 871 871 871 872 872 872 872 872 872 872 872 872 872
850 851 852 853 854 856 856 857 858 859 860 861 861 862 863 864 865 865 866 866 867 867 867 868 868 868 868 869 869 869 870 870 871 871 871 872 872 872 871 871 871 871
848 850 851 852 853 854 855 856 857 857 858 859 860 861 861 862 863 863 864 865 866 866 866 867 867 867 868 868 868 869 869 869 869 870 870 870 871 871 871 870 870 870
847 848 850 851 852 853 854 854 855 856 857 857 858 859 859 860 861 861 863 863 864 865 865 865 866 866 867 867 867 868 868 868 868 868 869 869 869 870 870 870 870 870
846 847 849 850 850 851 852 853 854 854 855 856 856 857 857 858 859 860 861 862 863 863 864 864 865 865 866 866 866 867 867 867 867 867 868 868 868 868 868 869 869 869
845 846 847 848 849 850 851 851 852 853 853 854 855 856 857 857 858 859 860 861 862 862 863 863 863 864 864 865 865 866 866 866 866 866 867 867 867 867 867 867 867 867
843 845 846 847 848 848 849 849 850 851 852 853 854 856 858 858 859 860 861 861 861 862 862 862 862 863 863 864 865 865 865 866 866 866 866 866 865 865 865 865 865 865
842 843 844 845 846 846 847 848 849 850 851 852 853 855 856 857 857 859 860 861 861 861 861 862 862 862 863 863 864 864 864 865 865 865 865 865 864 864 864 864 864 865
840 841 842 843 844 845 846 846 847 848 850 851 852 853 854 855 855 856 857 859 860 860 860 861 861 862 862 863 863 863 863 864 864 864 864 864 864 863 863 864 864 865
838 839 840 841 843 843 844 845 845 846 848 849 850 850 852 853 853 854 855 857 858 859 860 859 859 860 861 861 862 862 862 863 863 863 863 863 863 862 863 863 863 863
836 837 838 839 840 842 842 843 844 845 846 847 847 848 850 851 852 852 854 856 857 858 858 858 858 858 859 860 860 861 861 861 861 862 862 862 861 861 861 862 862 862
835 836 837 838 839 840 841 842 843 843 844 845 846 847 848 849 850 851 852 854 855 856 856 857 857 858 858 858 859 859 860 860 860 860 860 861 860 860 860 860 860 860
834 835 836 837 838 839 840 841 842 842 843 844 844 845 846 847 848 849 850 852 853 854 855 855 856 856 856 857 858 858 859 859 859 859 859 859 859 859 859 858 858 858
833 835 836 836 837 838 840 840 841 841 842 843 844 845 846 846 847 847 848 849 850 851 853 853 854 855 855 856 856 856 857 857 857 858 858 858 858 857 858 857 857 857
830 834 838 838 836 837 839 839 840 841 841 843 843 844 845 846 846 847 847 848 849 850 851 851 852 853 853 854 854 855 855 855 856 856 856 856 856 856 856 856 856 857
828 831 837 839 837 837 838 839 840 840 841 842 843 844 845 845 846 846 847 847 848 849 849 850 851 852 852 853 853 853 853 853 854 855 855 855 855 855 855 855 855 856
827 829 835 837 837 837 838 839 840 840 841 841 842 843 845 845 846 847 847 847 848 848 849 849 850 851 851 852 852 852 852 852 853 853 853 854 854 854 854 854 854 854
827 829 834 837 837 837 837 838 839 840 841 841 842 843 844 845 846 847 848 848 848 849 849 849 849 850 850 851 851 852 852 852 851 851 852 852 852 853 853 853 853 853
826 829 833 838 838 837 838 838 839 840 840 841 842 842 843 845 845 846 847 848 848 849 849 849 849 849 849 849 850 851 851 851 851 850 850 851 851 851 852 852 852 853
827 829 832 836 837 837 838 839 839 839 840 841 842 842 843 845 845 846 847 848 848 849 849 849 849 848 848 849 849 850 850 850 850 849 849 849 849 849 850 851 851 852
829 831 832 834 836 837 838 839 839 839 840 841 842 843 844 845 846 846 847 848 849 849 849 849 849 849 849 849 849 849 849 849 849 849 848 848 849 848 849 849 850 851
Wind_Speed
22 22 23 23 22 22 20 20 22 21 19 19 18 17 17 14 13 14 13 12 11 11 11 11 11 10 8 8 9 9 8 6 5 4 4 4 2 0 2 2 3 4
22 21 23 23 22 21 21 20 20 20 19 18 18 18 16 14 14 14 14 13 13 12 11 12 11 10 10 9 9 10 9 8 6 5 5 5 4 1 1 1 2 3
21 21 23 24 22 21 21 21 20 18 17 17 17 18 17 15 15 14 14 15 15 14 12 11 11 12 11 11 9 9 9 9 7 6 5 5 5 4 3 1 2 3
22 21 22 22 22 21 20 20 21 19 17 16 16 17 17 16 15 15 15 16 15 14 13 12 11 11 12 12 9 9 9 8 7 6 5 4 6 6 4 3 3 3
23 22 21 21 20 20 18 19 20 20 18 17 15 15 16 16 15 14 14 16 15 13 13 12 10 9 12 12 9 8 9 8 6 6 6 5 6 7 5 4 4 4
23 23 22 21 20 19 19 18 19 19 18 18 17 16 16 15 15 15 15 15 14 13 12 12 10 9 10 11 10 8 9 8 7 6 7 7 6 6 6 5 5 5
23 22 22 22 20 19 20 19 19 19 19 18 17 17 17 17 16 16 16 16 15 14 13 12 11 10 10 10 11 10 9 9 8 7 7 8 7 6 6 7 6 6
23 22 21 21 19 18 20 20 19 19 19 18 18 17 17 18 18 17 17 16 16 15 15 14 12 11 11 11 11 11 10 10 10 8 7 8 8 8 7 7 8 8
23 22 21 20 20 19 20 20 20 19 18 19 18 17 16 17 18 18 17 16 15 15 15 15 14 12 12 13 12 11 10 9 11 11 9 8 9 10 8 7 8 9
22 23 23 21 19 20 20 20 20 19 19 19 19 18 17 16 17 18 18 17 15 14 13 15 15 13 13 13 12 12 10 9 9 11 11 9 9 10 9 8 8 9
22 23 23 21 19 19 19 20 20 19 19 19 18 16 15 15 16 17 18 17 16 14 14 14 14 15 15 14 13 12 12 10 9 10 10 9 9 9 9 8 9 10
23 22 22 21 19 18 18 18 19 20 19 18 16 15 14 14 14 15 16 17 16 16 15 14 13 14 15 14 14 13 12 12 11 11 10 10 10 10 10 10 10 11
23 23 22 21 20 20 18 17 18 19 18 17 15 14 14 15 15 15 15 15 17 17 16 13 12 13 14 13 13 13 12 12 13 13 13 12 12 12 12 11 10 10
25 24 23 22 22 21 21 20 19 18 18 18 16 15 15 15 14 15 15 15 16 16 14 12 12 12 13 13 13 14 13 12 11 12 13 13 12 13 12 10 10 11
25 24 23 22 23 24 23 22 20 17 17 19 18 16 16 14 13 13 15 17 16 15 14 13 13 13 13 14 14 14 14 12 10 10 10 11 11 12 11 9 10 11
23 22 20 20 21 22 22 21 19 17 16 18 18 17 16 15 14 15 17 18 16 15 15 14 14 15 15 15 15 14 14 13 13 12 10 10 11 11 10 9 9 8
21 20 18 17 18 19 18 17 17 17 16 18 19 19 17 17 16 17 18 18 15 14 14 13 14 16 16 16 16 16 15 14 14 14 12 11 11 9 7 6 5 4
19 19 19 17 16 17 17 17 17 17 17 18 20 20 18 17 16 16 18 18 16 16 15 14 15 16 16 16 16 16 16 15 15 14 12 11 10 7 5 3 2 1
15 14 16 18 17 16 18 19 19 20 20 20 19 18 16 16 16 16 17 18 18 18 17 16 16 16 15 15 15 15 16 16 15 13 11 10 9 8 7 5 4 3
15 10 9 14 17 17 18 19 20 20 20 20 19 18 17 17 16 16 16 16 17 17 17 16 15 14 13 12 12 12 12 12 13 13 12 11 10 9 8 6 5 5
17 13 11 13 15 16 17 18 18 18 18 18 17 17 17 17 16 16 16 16 15 15 14 13 12 11 10 10 10 10 9 8 10 12 13 11 10 9 8 6 6 5
15 16 17 17 16 15 15 16 16 16 17 17 16 16 15 15 15 15 15 15 14 13 12 11 10 9 9 9 8 8 8 8 10 12 13 12 10 8 7 6 5 5
15 16 15 13 13 14 15 14 14 14 14 14 15 15 15 14 13 13 13 12 11 9 8 7 7 7 7 8 7 7 8 9 10 11 12 11 9 8 6 5 4 4
17 17 15 12 12 14 14 13 12 12 11 11 12 14 14 14 14 13 12 10 9 7 5 5 5 5 6 6 7 7 8 9 11 12 12 11 10 8 6 5 4 3
16 17 17 14 13 13 13 12 12 12 11 11 12 14 15 15 14 13 12 10 8 7 6 5 4 4 3 4 5 6 8 9 11 12 13 13 11 10 8 6 5 4
13 15 15 14 13 13 14 13 13 13 13 14 14 15 16 15 14 13 13 12 10 9 8 7 6 5 4 3 4 5 7 9 12 13 13 12 12 11 11 9 6 4
Wind_Direction
198 199 201 202 202 202 200 197 197 198 200 201 202 202 205 209 207 201 197 197 202 205 208 208 205 205 204 202 205 207 207 208 210 206 204 208 203 90 43 34 11 1
200 202 200 199 202 204 203 200 200 202 204 207 207 205 208 213 212 206 204 206 207 209 212 211 209 204 198 196 201 207 209 211 216 217 215 216 214 237 315 343 330 327
200 202 200 200 202 204 205 204 204 205 210 214 213 209 209 212 212 214 215 212 211 213 214 217 220 215 205 202 205 212 213 211 214 212 209 216 223 240 259 281 315 314
199 201 201 202 204 206 208 208 207 209 213 219 217 210 209 210 214 221 222 214 210 215 217 222 229 222 211 207 210 219 220 214 214 216 219 233 241 244 250 270 295 303
200 201 201 203 204 206 209 208 206 208 214 219 217 211 211 214 219 223 218 210 209 215 218 222 231 223 209 207 212 222 224 219 218 225 228 231 241 248 248 260 290 302
203 203 204 204 203 205 208 207 206 208 214 218 217 214 214 216 218 217 212 209 210 216 220 224 230 222 210 212 218 226 231 226 226 239 240 235 246 258 248 250 282 297
205 205 204 205 206 208 209 207 208 211 216 220 218 217 217 216 215 216 217 215 215 218 222 223 227 224 219 221 224 231 238 232 231 250 256 248 252 262 252 249 271 284
205 204 203 205 209 211 210 209 211 214 217 219 217 216 216 215 215 216 217 217 219 223 223 221 225 227 225 225 229 237 242 236 235 249 260 253 250 258 262 256 264 274
205 204 203 207 212 212 211 211 215 216 216 216 216 215 214 214 215 215 214 217 221 222 220 218 222 228 225 223 228 236 242 242 241 245 254 257 255 261 266 260 263 271
208 205 204 209 214 215 214 215 217 218 217 218 218 217 217 216 215 214 213 218 221 220 219 218 219 223 223 223 229 235 243 250 248 244 248 258 264 262 258 257 264 269
207 206 207 212 215 218 221 220 219 218 219 222 220 216 218 219 216 216 215 216 220 220 222 223 223 225 225 224 230 236 242 249 253 247 245 253 264 262 258 261 266 269
205 205 207 212 215 219 224 220 218 219 220 224 224 218 221 223 219 221 223 222 222 221 225 230 228 224 223 223 227 233 239 247 254 253 248 254 263 264 265 265 267 274
205 206 208 209 213 218 220 220 220 219 218 222 223 216 220 226 221 221 227 231 226 221 224 231 228 222 220 220 225 232 239 246 252 252 249 253 260 262 264 267 276 291
203 207 209 210 214 216 217 221 221 216 213 217 218 213 215 221 220 216 219 225 222 216 218 226 228 225 218 217 224 232 240 246 247 246 246 249 255 259 263 268 276 285
201 204 207 211 215 217 218 223 223 215 208 210 214 215 212 211 217 217 216 220 218 211 213 220 225 225 220 219 225 231 239 244 241 240 245 247 254 261 265 272 271 266
195 198 201 206 212 216 219 220 220 216 207 203 208 213 209 207 215 216 214 218 216 210 214 220 221 223 224 223 224 227 233 237 238 242 243 246 258 267 270 277 278 265
188 189 192 194 197 199 201 202 204 206 202 198 200 205 206 207 210 212 214 217 216 214 218 218 216 219 225 226 226 227 230 232 236 240 241 248 262 269 265 269 278 280
182 185 187 187 185 181 178 178 181 183 182 185 190 197 202 202 203 208 212 214 214 215 214 210 212 219 224 226 228 230 232 235 237 237 240 249 254 245 226 223 239 252
172 178 184 185 182 178 174 171 168 166 167 170 175 180 184 184 186 191 194 198 203 206 205 206 211 218 223 227 232 234 236 239 238 234 234 236 229 214 206 203 193 192
175 177 189 187 179 177 175 170 167 164 164 166 169 171 173 173 174 177 178 182 189 193 195 198 202 209 217 223 229 233 238 239 232 224 222 221 215 212 215 211 206 210
188 191 209 206 186 177 175 171 168 165 162 165 168 170 172 172 174 176 174 174 179 184 186 188 190 196 204 211 219 225 230 228 216 212 215 217 214 216 220 220 222 227
193 192 203 204 189 177 174 169 166 163 159 160 161 158 159 164 169 172 171 171 175 181 186 188 190 198 204 212 221 219 214 210 205 206 210 209 206 210 216 217 223 231
179 171 172 178 175 171 168 164 161 158 156 158 158 153 152 156 159 160 163 168 171 177 188 193 195 205 215 222 226 222 214 207 201 199 198 195 192 194 199 202 206 223
172 165 158 157 163 161 158 158 157 153 152 156 159 155 152 155 161 159 158 164 168 168 178 192 198 207 217 222 225 225 220 212 206 200 191 187 185 180 181 184 179 182
163 164 166 168 164 156 153 153 150 145 144 148 151 151 150 153 160 159 153 152 155 153 150 160 172 177 192 204 204 209 212 210 208 202 191 185 182 174 170 174 174 172
154 159 166 170 165 158 154 152 149 146 146 147 148 149 150 151 153 151 143 136 135 132 125 120 117 115 117 139 165 183 196 199 201 201 193 184 178 170 165 166 165 161